Location: Capelle
(50.3413°N, 1.9974°E)
Time: 00:15:11
(UTC+00:00)

Radarsat Rocket - Pass Details

Date: 12 January 2026
Orbit: 933 x 1491 km, 100.5° (Epoch: 9 February)

Event Time Altitude Azimuth Distance (km) Brightness Sun altitude
Rises 17:38:33 0° 143° (SE) 3,877 6.9 -13.1°
Reaches altitude 10° 17:41:13 10° 139° (SE) 2,855 6.2 -13.5°
Maximum altitude 17:47:18 53° 64° (ENE) 1,195 4.1 -14.4°
Drops below altitude 10° 17:52:59 10° 350° (N) 2,670 6.2 -15.3°
Sets 17:55:25 0° 346° (NNW) 3,605 7.0 -15.7°
